Theta_e
313 313 313 312 312 310 312 319 313 324 323 310 313 311 316 312 316 318 317 314 312 310 309 307 309 308 310 314 310 305 307 302 299 302 309 310 305 300 301 294 291 293 292 292
312 312 312 312 312 311 318 322 321 322 322 307 310 315 316 318 315 315 314 312 313 312 308 304 311 311 313 313 311 307 307 301 296 298 303 307 302 303 301 301 297 292 289 290
312 312 312 312 312 311 314 322 316 315 316 317 313 312 313 313 317 315 315 312 312 309 307 308 309 310 314 316 315 322 317 303 299 294 297 301 298 301 301 298 292 293 294 294
313 313 313 313 312 311 316 324 318 314 305 312 315 314 314 311 312 316 316 310 310 310 306 309 308 311 312 315 318 316 311 299 301 301 302 302 300 300 298 294 295 291 293 293
313 313 313 313 312 310 321 321 318 321 316 317 317 311 312 313 312 313 310 309 312 311 305 307 307 312 311 310 316 310 312 301 302 299 303 302 299 301 299 298 298 297 296 295
312 313 313 313 313 312 329 335 333 321 317 315 313 313 314 314 315 314 314 314 311 308 310 314 313 314 314 313 311 310 307 306 300 295 303 303 293 298 300 300 302 300 294 297
312 313 313 314 314 313 323 333 332 325 317 315 313 317 315 314 314 311 314 316 311 314 319 318 318 316 315 314 313 314 307 304 303 296 301 285 300 303 305 302 303 304 304 305
312 313 313 314 314 314 320 332 332 329 318 317 318 317 315 316 315 312 313 317 322 323 315 309 309 309 310 311 313 313 312 306 299 294 293 298 301 304 303 300 299 306 305 306
312 313 314 314 314 314 318 335 339 334 324 318 322 319 319 312 311 312 314 320 319 320 315 309 303 301 305 305 305 314 314 314 302 299 292 290 299 306 310 307 296 307 308 305
313 314 314 315 315 315 317 330 344 336 321 321 322 320 318 321 318 313 314 316 313 313 311 307 303 303 309 300 300 301 301 304 300 298 296 298 304 306 310 292 295 307 306 303
312 313 314 315 315 315 317 332 344 335 321 321 324 325 319 322 322 314 316 314 315 312 307 307 305 303 304 302 304 301 299 298 297 298 294 291 306 305 297 302 304 303 301 301
311 313 314 315 314 314 316 330 337 333 323 321 329 326 325 324 324 320 316 316 316 314 312 311 308 304 305 303 295 307 299 302 298 299 297 306 307 305 306 305 300 300 299 303
311 312 313 314 314 314 316 330 334 329 321 320 321 320 325 327 327 332 316 318 320 314 322 317 312 304 307 299 301 302 306 309 301 303 303 304 305 305 303 302 300 300 301 302
311 312 313 314 313 313 317 329 333 333 325 316 319 328 323 328 326 326 327 323 325 323 322 314 310 305 309 301 303 301 304 306 302 302 305 306 304 303 302 302 302 302 303 304
311 312 313 313 313 312 318 328 330 329 325 314 316 323 325 327 329 328 329 327 325 317 311 308 304 307 305 305 303 299 304 302 299 297 302 300 300 305 307 304 304 305 304 304
311 313 313 313 312 312 330 320 329 323 332 318 311 321 324 326 327 325 324 322 318 315 311 309 312 315 309 303 297 305 307 308 306 302 306 305 305 306 307 303 304 306 305 304
310 311 312 312 312 323 320 318 323 314 329 319 311 313 322 326 326 321 320 322 318 314 312 310 310 310 309 302 297 305 308 307 306 307 306 302 304 301 307 305 307 307 306 306
310 311 312 313 312 314 320 325 316 316 329 325 312 310 314 328 316 314 320 315 316 315 312 313 309 311 308 300 305 307 306 307 308 308 306 304 303 304 304 305 304 302 302 303
310 311 312 321 323 320 320 321 318 332 326 316 313 308 306 319 316 317 316 318 310 317 309 310 311 306 300 304 306 303 305 305 305 308 306 304 302 303 304 303 303 301 301 303
311 320 322 315 320 319 324 325 319 318 319 322 314 315 310 316 313 312 314 313 308 304 309 313 305 301 309 308 307 307 310 309 309 302 300 302 304 303 302 302 302 302 302 303
327 324 320 325 319 323 322 313 313 313 311 316 315 316 312 319 313 310 315 309 311 304 307 307 303 300 307 308 309 312 310 307 306 305 308 306 304 302 302 302 303 303 302 302
313 310 317 327 322 314 312 308 310 312 309 314 313 313 317 316 319 313 310 308 308 304 313 305 299 305 310 310 311 311 307 307 307 308 306 305 305 303 303 302 301 301 303 303
323 323 322 311 312 299 304 304 306 306 312 314 314 312 315 314 316 312 309 305 305 313 305 302 304 310 311 311 313 309 308 309 308 307 307 306 305 305 304 302 302 303 302 303
323 312 293 306 307 308 308 308 310 314 316 314 314 313 312 315 310 309 307 308 307 302 300 301 307 309 311 313 310 306 307 308 307 306 305 305 304 304 304 303 304 302 302 301
312 312 297 306 311 311 312 314 313 314 316 315 312 311 311 309 307 308 304 304 300 302 301 305 310 312 311 309 308 307 308 307 305 305 304 305 304 303 302 303 303 303 302 301
315 315 309 311 311 309 311 312 311 315 314 315 314 310 306 306 306 304 304 301 301 304 308 311 313 311 310 309 310 309 309 307 305 304 306 305 305 302 301 303 302 301 301 301
312 310 314 310 310 310 311 312 312 317 313 309 309 305 304 307 303 304 306 304 307 309 311 313 313 311 310 311 311 311 309 307 305 305 305 304 306 303 302 301 301 300 300 301
Wind_Speed
18 18 18 17 18 20 2 1 2 4 4 4 1 3 5 7 4 10 5 9 8 6 6 4 8 9 6 6 6 4 3 1 5 13 13 15 11 8 6 5 2 3 5 3
18 19 17 15 14 14 3 2 3 1 7 2 3 3 7 16 15 12 7 7 7 7 4 6 11 7 8 9 6 4 6 4 4 3 6 13 10 9 5 4 4 3 5 4
19 18 16 15 13 10 2 2 3 1 3 3 5 5 9 9 9 8 6 9 12 8 7 4 9 10 6 8 5 6 7 8 10 6 5 5 6 9 10 7 4 8 7 3
20 18 17 15 13 8 1 1 5 5 3 3 2 3 17 7 3 8 10 10 11 8 8 8 9 12 8 8 2 7 8 9 12 8 9 7 5 6 13 12 9 9 6 7
20 19 17 15 13 10 0 2 2 6 3 6 1 5 7 7 15 11 9 9 10 9 9 7 7 6 6 5 7 6 3 4 6 6 8 12 12 13 13 12 11 8 8 8
21 20 18 17 15 6 3 3 4 3 3 4 9 5 7 11 10 14 12 10 9 10 8 9 6 7 7 6 5 4 4 4 3 2 4 5 8 10 9 16 17 12 7 4
21 20 19 16 12 8 2 4 2 3 5 6 15 4 18 19 13 11 12 10 9 3 5 7 10 11 6 9 5 5 5 4 2 3 2 6 3 8 13 19 16 16 13 15
22 21 20 17 13 7 3 4 4 2 4 9 12 4 14 10 9 11 10 7 2 7 3 2 4 6 7 6 5 7 4 4 2 5 2 6 10 16 10 6 8 9 11 11
22 21 20 19 15 13 3 3 1 1 2 10 6 5 8 7 6 7 7 5 5 8 3 2 3 2 4 1 4 7 4 1 8 7 3 2 9 17 17 3 5 11 6 7
22 22 20 18 15 11 3 4 4 2 5 6 8 5 3 4 4 5 5 2 1 3 2 4 4 4 3 4 4 5 5 4 4 1 4 4 11 16 8 8 5 11 9 9
22 23 22 21 18 11 5 5 1 5 5 6 8 7 7 5 5 5 3 3 3 4 2 2 2 4 3 5 5 3 5 3 4 4 4 2 14 9 7 4 5 7 7 8
22 22 23 23 21 19 10 3 5 4 6 5 3 6 7 8 5 3 2 3 3 1 3 5 6 5 6 3 3 8 6 3 3 4 4 3 2 5 5 6 4 6 7 6
21 21 22 22 22 21 9 3 4 4 7 5 7 9 9 10 7 3 5 2 1 1 4 2 3 6 4 4 4 3 5 5 5 4 2 3 6 5 4 5 5 5 5 6
20 19 20 21 21 20 10 3 4 2 3 4 4 6 8 6 6 7 4 4 3 1 0 4 4 5 6 4 6 5 2 4 5 4 5 3 4 2 3 2 3 4 7 4
19 18 18 19 19 18 6 2 3 3 4 4 2 6 6 5 4 5 3 2 1 3 6 4 4 5 7 4 5 4 3 3 2 2 4 2 5 4 7 7 5 6 5 6
18 17 16 17 18 15 2 2 4 7 4 5 4 2 3 3 3 7 7 5 5 4 4 3 3 3 6 4 3 4 5 6 4 2 2 2 1 5 2 3 2 1 5 2
18 17 14 14 15 5 4 2 4 7 3 5 4 3 0 3 2 3 5 7 4 5 2 4 4 4 6 4 3 6 5 5 3 3 4 2 5 3 3 3 6 6 7 5
19 16 14 13 10 4 2 2 4 5 2 1 4 2 1 1 2 2 3 3 3 2 2 4 4 3 4 4 4 7 5 2 4 5 0 5 6 8 6 5 6 8 7 7
18 17 16 3 1 3 3 9 10 3 3 2 4 5 3 4 3 4 2 3 2 3 3 2 5 3 4 7 5 8 2 1 3 8 6 7 4 8 7 8 9 7 7 7
15 3 2 3 2 5 7 5 5 3 3 2 2 2 3 4 2 2 4 3 2 3 1 4 4 2 4 7 7 5 6 2 2 5 5 6 5 7 7 7 7 7 7 7
3 3 3 3 1 3 1 2 1 1 1 3 2 2 4 3 3 3 2 1 3 3 3 5 3 3 5 8 6 7 4 3 4 2 3 6 6 6 7 7 7 7 7 7
1 4 6 4 2 3 3 1 2 2 3 2 3 2 3 2 2 0 1 2 2 3 3 3 3 3 7 7 6 4 5 4 1 6 8 8 8 7 6 6 6 6 7 7
3 3 2 5 2 5 3 2 1 3 3 2 1 1 1 1 2 1 2 2 3 6 3 2 3 7 7 6 7 7 7 3 8 8 8 8 7 7 6 6 6 6 6 6
3 2 5 2 1 5 5 5 4 4 4 4 1 2 0 1 1 2 2 2 2 3 4 3 5 7 6 6 5 3 4 8 8 8 7 6 6 6 7 6 5 5 6 7
4 1 3 4 2 4 4 2 4 3 4 5 5 2 2 2 1 1 5 1 3 5 3 3 5 7 5 5 6 5 7 7 6 5 4 5 6 5 5 7 4 5 6 6
2 3 2 3 1 3 1 5 5 5 5 4 2 2 4 1 2 3 3 2 6 3 3 6 5 5 6 6 5 6 5 5 3 3 3 4 4 3 4 5 4 4 6 5
3 2 3 5 3 3 4 4 3 4 4 2 3 4 3 2 3 2 4 3 4 5 5 4 5 5 5 5 5 6 4 4 4 2 1 2 2 2 4 3 3 4 7 4
Wind_Direction
338 340 339 341 342 339 119 348 285 258 94 65 226 211 259 302 152 62 89 54 60 73 38 333 90 80 68 63 5 24 13 62 81 87 71 61 50 34 14 101 291 106 116 225
340 337 339 342 352 6 325 284 249 298 83 117 290 277 322 297 65 54 41 37 50 18 101 47 117 96 67 64 41 21 320 339 119 161 34 40 29 5 13 82 72 44 101 248
339 335 339 342 349 353 304 335 308 26 76 153 86 298 279 271 55 59 61 55 38 17 359 123 129 132 88 79 44 4 86 58 83 108 87 36 34 19 31 64 62 42 91 126
334 336 343 346 340 354 268 198 261 191 182 95 106 69 289 122 136 79 49 47 47 21 17 32 43 114 146 122 100 58 91 93 87 77 112 119 82 68 58 43 20 83 81 73
334 337 344 345 336 342 354 265 9 345 61 118 314 236 305 348 61 78 44 83 76 51 53 69 49 53 34 45 24 86 46 92 85 52 82 78 36 22 73 64 33 46 54 40
336 339 343 344 339 350 278 313 318 109 265 141 130 249 171 236 110 45 40 62 85 64 69 82 96 94 83 80 55 52 80 131 66 106 338 346 29 8 28 65 42 44 42 332
335 338 340 341 348 1 297 271 318 5 319 106 147 80 67 64 63 81 52 46 82 38 117 110 40 30 30 98 78 97 113 89 86 142 257 60 62 20 86 81 42 16 13 5
336 336 337 340 345 342 265 293 48 349 14 33 56 12 88 80 66 74 74 43 22 350 219 136 64 359 4 103 119 91 124 113 133 137 146 135 36 14 345 338 58 20 11 323
336 337 337 339 341 341 265 270 190 29 34 1 289 226 149 126 100 74 100 66 8 20 11 269 135 329 236 139 14 67 26 357 55 356 86 131 360 353 320 341 77 355 338 342
336 336 337 338 342 336 297 284 168 109 90 345 350 27 8 75 116 101 91 91 308 103 262 280 164 181 69 57 45 352 31 46 157 198 106 55 329 360 351 54 310 317 5 356
336 336 337 338 343 339 349 274 226 129 108 24 17 26 27 25 31 113 235 37 342 356 316 32 94 81 79 75 53 54 60 319 30 36 70 42 340 31 63 246 341 3 6 339
335 336 338 338 344 346 339 24 351 58 88 178 55 48 45 79 66 99 36 133 72 322 14 359 42 36 48 73 71 16 45 54 91 51 118 203 19 79 24 42 25 357 355 4
335 337 336 336 341 350 2 347 352 41 98 54 43 35 16 35 40 43 107 44 57 10 188 190 88 71 73 87 43 110 60 51 109 95 56 98 86 69 52 64 30 6 350 22
333 335 332 333 337 339 349 340 327 68 115 88 9 47 38 37 38 50 58 122 20 349 44 55 76 91 57 39 94 87 24 44 114 117 140 199 75 99 101 72 13 7 332 15
331 333 328 329 330 329 302 263 36 30 120 118 114 55 17 16 46 61 49 42 32 55 54 79 89 119 77 121 79 40 27 327 75 100 144 101 285 309 65 48 45 20 23 11
331 328 325 328 328 329 355 29 3 11 22 111 80 289 86 16 34 37 37 57 57 66 80 77 47 51 104 97 101 159 124 69 68 132 74 226 37 89 49 354 349 357 285 301
328 321 320 319 331 349 55 176 263 343 327 95 111 120 9 178 145 39 38 34 67 94 80 55 91 41 70 58 102 121 103 91 341 13 326 298 35 327 296 209 268 254 274 280
321 315 307 305 310 264 8 243 261 316 24 212 100 87 175 170 169 105 118 90 72 38 127 55 104 54 73 92 127 102 93 192 236 284 34 82 18 343 336 355 25 15 4 1
315 310 301 309 81 31 280 282 301 208 127 315 102 156 169 164 239 120 112 158 108 194 97 90 88 51 38 148 148 100 84 350 324 303 45 42 333 302 18 26 17 17 4 6
308 351 301 23 335 268 306 359 14 2 323 357 106 113 148 161 147 248 165 115 193 104 168 89 79 67 128 84 103 143 207 273 325 38 335 298 6 31 17 23 18 12 4 358
357 319 24 311 292 11 243 230 238 200 352 15 345 20 120 28 85 252 112 359 150 135 208 125 123 148 172 143 189 219 156 50 294 269 354 54 55 31 26 12 15 14 360 359
22 281 270 284 312 18 330 116 254 358 65 60 11 31 61 1 33 121 301 256 95 93 141 116 111 139 150 172 196 162 115 243 271 56 50 36 42 32 25 21 16 2 8 11
175 230 342 53 284 32 244 185 27 84 345 81 76 341 104 0 322 5 352 27 68 124 150 87 87 143 148 176 213 150 188 171 63 49 42 38 31 24 36 22 359 21 360 1
257 107 348 169 256 34 34 41 46 337 345 335 5 145 289 357 81 4 266 60 9 233 142 101 146 147 164 204 126 119 84 73 61 50 33 28 24 24 37 3 5 4 2 331
13 339 342 47 29 42 355 344 88 341 338 357 341 352 160 205 115 274 31 221 255 37 71 123 133 140 162 118 98 65 76 67 55 44 28 28 20 42 9 326 21 11 350 328
353 317 340 355 331 141 320 19 46 5 344 311 278 312 30 13 340 215 200 326 42 63 100 116 116 133 114 108 100 85 75 93 88 48 46 38 334 62 323 315 20 20 326 323
293 65 11 343 84 50 34 46 8 341 340 306 288 22 69 360 259 76 41 56 125 120 109 119 134 126 124 126 128 152 169 131 102 57 44 296 277 20 317 356 40 353 333 345